User: anonymous   Login
Location: Unspecified
(0.0000°N, 0.0000°E)
Time: 04:49:29
(UTC+02:00)
Language:

GPS 2-12 Rocket1 - Orbit

View from above orbital plane
View from above orbital plane
View from above satellite
View from above satellite

Ground track
Ground track

The orbit data is extracted from the following two-line orbital elements,

1 21891U 92009B   17202.55485947 +.00000610 +00000-0 +24234-4 0  9996
2 21891 019.9976 012.8729 0047257 144.0729 216.2879 14.82893871371372
Epoch (UTC): 21 July 2017 13:18:59
Eccentricity: 0.0047257
inclination: 19.9976°
perigee height: 587 km
apogee height: 653 km
right ascension of ascending node: 12.8729°
argument of perigee: 144.0729°
revolutions per day: 14.82893871
mean anomaly at epoch: 216.2879°
orbit number at epoch: 37137

The dashed part of the orbit path shows where the satellite is in the earth's shadow,  

DLR